Regional Weather Roundup
Issued by NWS

Home | Current Version | Previous Version | Graphics & Text | Print | Product List | Glossary On
Versions: 1 2 3 4 5 6 7 8 9 10 11 12 13 14 15 16 17 18 19 20 21 22 23 24 25 26 27 28 29 30 31 32 33 34 35 36 37 38 39 40 41 42 43 44 45 46 47 48 49 50
000
ASUS43 KOAX 261710
RWRNE

WEATHER ROUNDUP FOR NEBRASKA
NATIONAL WEATHER SERVICE OMAHA NE
1200 PM CDT THU MAY 26 2016

NOTES: SATELLITE DATA IS BEING USED TO AUGMENT CLOUD COVER ABOVE
       12000 FEET.
       "FAIR" INDICATES FEW OR NO CLOUDS BELOW 12,000 FEET WITH NO
       SIGNIFICANT WEATHER AND/OR OBSTRUCTIONS TO VISIBILITY.

  * THESE STATIONS DO NOT REPORT WEATHER SUCH AS RAIN...SNOW OR FOG.

NEZ001>004-019>022-054>056-261800-
NEBRASKA PANHANDLE

CITY           SKY/WX    TMP DP  RH WIND       PRES   REMARKS
SCOTTSBLUFF    MOSUNNY   70  42  36 CALM      29.93F
ALLIANCE       SUNNY     69  41  36 VRB3      29.92F
CHADRON        SUNNY     68  43  40 NW7       29.91F
KIMBALL        CLOUDY    60  40  48 NE6       29.96F THUNDER
SIDNEY         LGT RAIN  61  44  53 N7        29.94F
$$

NEZ057>060-069>072-079>082-261800-
SOUTHWEST NEBRASKA

CITY           SKY/WX    TMP DP  RH WIND       PRES   REMARKS
NORTH PLATTE   SUNNY     73  48  41 E10       29.89F
IMPERIAL       MOSUNNY   72  50  45 NE16      29.89F
LEXINGTON      LGT RAIN  63  57  80 NE12      29.90F
MCCOOK         SUNNY     72  54  53 NE13G22   29.87F
OGALLALA       CLOUDY    65  49  54 N6        29.91S
$$

NEZ005>010-023>029-035>040-094-261800-
NORTH CENTRAL NEBRASKA

CITY           SKY/WX    TMP DP  RH WIND       PRES   REMARKS
VALENTINE      CLOUDY    69  50  50 S13       29.90F
AINSWORTH      PTSUNNY   62  52  70 SE5       29.92F
BROKEN BOW     PTSUNNY   70  53  54 W3        29.92F
O`NEILL        CLOUDY    65  56  73 CALM      29.93R
ORD            CLOUDY    68  55  63 E7        29.90S
THEDFORD       CLOUDY    67  50  54 SE8       29.90F
$$

NEZ041-046>049-061>064-073>077-083>087-261800-
SOUTH CENTRAL NEBRASKA

CITY           SKY/WX    TMP DP  RH WIND       PRES   REMARKS
GRAND ISLAND   MOSUNNY   74  58  57 NE12      29.88F
AURORA         SUNNY     75  56  51 E10       29.86F
HASTINGS       SUNNY     74  59  59 NE10      29.85F
HEBRON         MOSUNNY   79  68  69 E9        29.80F
HOLDREGE       CLOUDY    72  54  53 E10       29.88R
KEARNEY *      SUNNY     72  55  56 NE13      29.89S
YORK           SUNNY     73  61  64 NE10      29.86F
$$

NEZ011>018-030>034-042>045-261800-
NORTHEAST NEBRASKA

CITY           SKY/WX    TMP DP  RH WIND       PRES   REMARKS
NORFOLK        MOSUNNY   71  55  56 SE5       29.89F
ALBION         MOSUNNY   71  56  60 SE8       29.90F
BLAIR          SUNNY     78  56  46 E5        29.88R
FREMONT        MOSUNNY   78  54  44 E8        29.87F
TEKAMAH        MOSUNNY   78  56  46 VRB3      29.88R
WAYNE          SUNNY     71  58  63 CALM      29.91S
$$

NEZ050>053-065>068-078-088>093-261800-
SOUTHEAST NEBRASKA

CITY           SKY/WX    TMP DP  RH WIND       PRES   REMARKS
LINCOLN        SUNNY     79  62  56 NE9       29.83F
OMAHA EPPLEY   MOSUNNY   81  58  45 VRB3      29.85F
BEATRICE       MOSUNNY   79  69  71 SE12      29.81F
FALLS CITY     CLOUDY    77  67  71 S13       29.84S
NEBRASKA CITY  SUNNY     79  66  65 SE14      29.84F
PLATTSMOUTH    SUNNY     81  67  61 E9        29.85F
$$

NEZ044-045-051>053-067-261800-
OMAHA AREA

CITY           SKY/WX    TMP DP  RH WIND       PRES   REMARKS
OMAHA EPPLEY   MOSUNNY   81  58  45 VRB3      29.85F
BLAIR          SUNNY     78  56  46 E5        29.88R
FREMONT        MOSUNNY   78  54  44 E8        29.87F
MILLARD        SUNNY     80  54  40 SE5       29.85F
OFFUTT AFB     MOSUNNY   80  62  55 VRB6      29.84F
PLATTSMOUTH    SUNNY     81  67  61 E9        29.85F
WAHOO          FAIR      78  54  43 NE5       29.85F
$$




USA.gov is the U.S. government's official web portal to all federal, state and local government web resources and services.